Weather History for KSET - June, 2013

Change the Weather History Date:

Saturday, June 29, 2013

  Actual Average (KSTL) Record (KSTL)
Temperature  
Mean Temperature 74 °F 79 °F  
Max Temperature 82 °F 88 °F 106 °F (2012)
Min Temperature 66 °F 70 °F 55 °F (1923)
Degree Days  
Heating Degree Days 0 0  
Month to date heating degree days 3  
Since 1 June heating degree days 3  
Since 1 July heating degree days 4533  
Cooling Degree Days 9 14  
Month to date cooling degree days 318  
Year to date cooling degree days 492  
Since 1 June cooling degree days 318  
Growing Degree Days 24 (Base 50)    
Moisture  
Dew Point 61 °F    
Average Humidity 72    
Maximum Humidity 93    
Minimum Humidity 50    
Precipitation  
Precipitation 0.50 in 0.12 in 1.81 in (1960)
Month to date precipitation 4.16  
Year to date precipitation 20.53  
Snow  
Snow 0.00 in 0.00 in 0.00 in (2013)
Month to date snowfall 0.0  
Since 1 June snowfall 0.0  
Since 1 July snowfall 17.7  
Snow Depth -    
Sea Level Pressure  
Sea Level Pressure 29.69 in    
Wind  
Wind Speed 11 mph (NW)    
Max Wind Speed 32 mph    
Max Gust Speed 43 mph    
Visibility 9 miles    
Events Rain    
T = Trace of Precipitation, MM = Missing Value Source: NWS Daily Summary

Daily Weather History Graph

Daily Weather History Graph

Search for Another Location

Airport or City:

Trip Planner

Search our weather history database for the weather conditions in past years. The results will help you decide how hot, cold, wet, or windy it might be!

Date:

Astronomy

Jun. 29, 2013 Rise Set
Actual Time 5:39 AM CDT 8:31 PM CDT
Civil Twilight 5:07 AM CDT 9:03 PM CDT
Nautical Twilight 4:26 AM CDT 9:43 PM CDT
Astronomical Twilight 3:40 AM CDT 10:29 PM CDT
Moon 12:04 AM CDT (6/29) 12:46 PM CDT (6/29)
Length of Visible Light 15h 55m
Length of Day
14h 52m
Waning Gibbous, 55% of the Moon is Illuminated
Jun 29
Waning Gibbous
Jun 29
Last Quarter
Jul 8
New
Jul 15
First Quarter
Jul 22
Full

Hourly Weather History & Observations

Time (CDT) Temp. Heat Index Dew Point Humidity Pressure Visibility Wind Dir Wind Speed Gust Speed Precip Events Conditions
12:54 AM 75.0 °F - 59.0 °F 57% 29.68 in 10.0 mi WNW 8.1 mph - N/A   Mostly Cloudy
1:54 AM 73.9 °F - 59.0 °F 59% 29.68 in 10.0 mi West 5.8 mph - N/A   Clear
2:54 AM 71.1 °F - 60.1 °F 68% 29.69 in 10.0 mi WSW 6.9 mph - N/A   Clear
3:54 AM 70.0 °F - 60.1 °F 71% 29.68 in 10.0 mi West 8.1 mph - N/A   Clear
4:54 AM 70.0 °F - 60.1 °F 71% 29.68 in 10.0 mi West 8.1 mph - N/A   Clear
5:54 AM 69.1 °F - 60.1 °F 73% 29.69 in 10.0 mi West 13.8 mph - N/A   Clear
6:54 AM 71.1 °F - 60.1 °F 68% 29.68 in 10.0 mi WNW 9.2 mph - N/A   Clear
7:54 AM 73.0 °F - 61.0 °F 66% 29.68 in 10.0 mi WNW 13.8 mph 23.0 mph N/A   Clear
8:54 AM 75.0 °F - 60.1 °F 60% 29.68 in 10.0 mi WNW 16.1 mph - N/A   Clear
9:54 AM 77.0 °F - 61.0 °F 58% 29.68 in 10.0 mi WNW 19.6 mph - N/A   Partly Cloudy
10:54 AM 78.1 °F - 61.0 °F 56% 29.68 in 10.0 mi NW 19.6 mph 25.3 mph N/A   Partly Cloudy
11:54 AM 80.1 °F 81.2 °F 62.1 °F 54% 29.67 in 10.0 mi NW 17.3 mph 24.2 mph N/A   Mostly Cloudy
12:54 PM 81.0 °F 81.7 °F 61.0 °F 50% 29.67 in 10.0 mi WNW 18.4 mph 25.3 mph N/A   Partly Cloudy
1:54 PM 80.1 °F 81.5 °F 63.0 °F 56% 29.65 in 10.0 mi NW 11.5 mph - 0.00 in Rain Light Rain
2:54 PM 82.0 °F 83.1 °F 63.0 °F 52% 29.64 in 10.0 mi NNW 15.0 mph 21.9 mph 0.00 in   Partly Cloudy
3:51 PM 71.6 °F - 59.0 °F 64% 29.67 in 10.0 mi NNE 18.4 mph 28.8 mph N/A   Mostly Cloudy
3:54 PM 70.0 °F - 59.0 °F 68% 29.67 in 10.0 mi North 16.1 mph 28.8 mph N/A   Mostly Cloudy
4:01 PM 69.8 °F - 62.6 °F 78% 29.69 in 5.0 mi NW 25.3 mph 34.5 mph 0.02 in Rain Rain
4:04 PM 66.2 °F - 60.8 °F 83% 29.69 in 1.5 mi WNW 32.2 mph 36.8 mph 0.10 in Rain Rain
4:12 PM 66.2 °F - 60.8 °F 83% 29.69 in 0.5 mi NW 17.3 mph 42.6 mph 0.38 in Rain Heavy Rain
4:21 PM 69.8 °F - 62.6 °F 78% 29.69 in 2.5 mi North 10.4 mph - 0.41 in Rain Light Rain
4:28 PM 69.8 °F - 62.6 °F 78% 29.69 in 10.0 mi NNW 6.9 mph - 0.41 in   Scattered Clouds
4:54 PM 72.0 °F - 64.9 °F 78% 29.70 in 10.0 mi NW 15.0 mph - 0.41 in   Partly Cloudy
5:54 PM 68.0 °F - 61.0 °F 78% 29.69 in 10.0 mi NW 4.6 mph - 0.04 in   Mostly Cloudy
6:54 PM 69.1 °F - 61.0 °F 75% 29.68 in 10.0 mi NW 5.8 mph - 0.01 in   Mostly Cloudy
7:54 PM 68.0 °F - 63.0 °F 84% 29.69 in 10.0 mi NW 6.9 mph - N/A   Partly Cloudy
8:54 PM 66.9 °F - 63.0 °F 87% 29.70 in 10.0 mi NW 8.1 mph - N/A   Clear
9:54 PM 66.9 °F - 63.0 °F 87% 29.72 in 10.0 mi NW 5.8 mph - N/A   Scattered Clouds
10:37 PM 66.2 °F - 62.6 °F 88% 29.74 in 2.5 mi North 6.9 mph - 0.04 in Rain Light Rain
10:44 PM 66.2 °F - 62.6 °F 88% 29.74 in 6.0 mi NNW 9.2 mph - 0.04 in Rain Light Rain
10:54 PM 66.0 °F - 64.0 °F 93% 29.73 in 10.0 mi NNW 9.2 mph - 0.04 in Rain Light Rain
11:54 PM 66.0 °F - 63.0 °F 90% 29.74 in 10.0 mi North 9.2 mph - N/A   Scattered Clouds